Weather in Kirzhemany

Russia / Republic of Mordovia     54°25′23″N   45°50′44″E
temp.,
°C
wind,
m/s
gust,
m/s
humid.,
%
clouds,
%
prec.,
mm/h
press.,
hPa
HPBL,
m
19 january, wed
wed1900:00−2ssw41196100 0.6 1009552
03:00−2ssw41097100 1.4 1010504
06:00−6nnw2398100 0.9 101169
09:00−7n259682 1.4 1013178
12:00−7nne2494100 0.3 1014283
15:00−7nnw3496100 0.9 1015236
18:00−11nw119770 0.5 101613
21:00−18w1110079 0.5 10189
20 january, thu
thu2000:00−19s1110095 0.0 10189
03:00−19s22100100 0.0 101912
06:00−19s22100100 0.0 101818
09:00−17s34100100 0.1 101862
12:00−12s4129437 0.0 1018290
15:00−11s410915 0.0 1017230
18:00−15s4109646 0.0 1017155
21:00−17s379974 0.0 101885
21 january, fri
fri2100:00−19sse369976 0.0 101883
03:00−20sse379979 0.0 101888
06:00−21sse3510090 0.0 101850
09:00−19sse389978 0.0 1017101
12:00−12sse5159362 0.0 1016347
15:00−8sse7168727 0.0 1014475
18:00−10sse7178799 0.0 1014442
21:00−10sse81887100 0.0 1013502
22 january, sat
sat2200:00−9se81893100 0.1 1013547
03:00−8sse71493100 1.3 1013545
06:00−8sse51095100 0.6 1014387
09:00−9se489574 0.9 1016257
12:00−8se369548 0.0 1017228
15:00−9ese229741 0.0 101930
18:00−13se229982 0.0 102113
21:00−11ese2296100 0.0 102110
23 january, sun
sun2300:00−10e2297100 0.0 102218
03:00−7ne2396100 0.8 1022135
06:00−7nne2297100 1.6 102285
09:00−7wnw1197100 2.5 102442
12:00−7wsw1295100 0.1 102670
15:00−8nw1197100 0.1 102810
18:00−10nne1197100 0.0 103011
21:00−8ne2297100 0.1 103156